Regional Weather Roundup
Issued by NWS

Home | Current Version | Previous Version | Graphics & Text | Print | Product List | Glossary On
Versions: 1 2 3 4 5 6 7 8 9 10 11 12 13 14 15 16 17 18 19 20 21 22 23 24 25 26 27 28 29 30 31 32 33 34 35 36 37 38 39 40 41 42 43 44 45 46 47 48 49 50
000
ASUS43 KIND 221200
RWRIN

WEATHER ROUNDUP FOR INDIANA
NATIONAL WEATHER SERVICE INDIANAPOLIS IN
800 AM EDT TUE AUG 22 2017

NOTE: "FAIR" INDICATES FEW OR NO CLOUDS BELOW 12,000 FEET WITH NO
SIGNIFICANT WEATHER AND/OR OBSTRUCTIONS TO VISIBILITY.

* - STATION DOES NOT REPORT WEATHER SUCH AS PRECIPITATION OR FOG.

+ - STATION NOT QUALITY CONTROLLED BY THE NATIONAL WEATHER SERVICE.
    USE DATA WITH CAUTION...ESPECIALLY DEWPOINT AND RELATIVE
    HUMIDITY OBSERVATIONS.

INZ001>003-010>013-019-020-221300-
NORTHWEST INDIANA

CITY           SKY/WX    TMP DP  RH WIND       PRES   REMARKS
GARY /AIRPORT/ CLOUDY    72  68  88 SW12      29.90R
MICHIGAN CITY+ CLOUDY    68  68 100 SW7       29.88S
MONTICELLO +   DRIZZLE   67  66  95 W5        29.93R
6HR MIN TEMP:  67; 6HR MAX TEMP:  73; 6HR PCP:  1.29;

RENSSELAER +   RAIN      68  63  83 S6        29.92S

$$

LMZ046-743>745-221300-
SOUTHERN LAKE MICHIGAN

STATION/POSITION TIME  TEMP    WIND        PRES    WAVE
                       AIR SEA DIR/SP/G            HT
                 (UTC) (F)     (DEG/KT/KT) (MB)    (FT)
BURNS HARBOR     1140   71     220/ 13/ 16 1012.2S
MICHIGAN CITY    1130   70     200/ 15/ 17   N/A
5NW MICH CITY    1150   72 74  230/ 17/ 21   N/A     4

$$

INZ004-005-014>016-021>024-221300-
NORTH CENTRAL INDIANA

CITY           SKY/WX    TMP DP  RH WIND       PRES   REMARKS
ELKHART        RAIN      70  66  88 SW9       29.88F
GOSHEN         LGT RAIN  70  66  87 W10       29.88F
6HR MIN TEMP:  70; 6HR MAX TEMP:  74; 6HR PCP:  0.49;

PERU/GRISSOM   LGT RAIN  68  68 100 W8        29.93S
SOUTH BEND     RAIN      68  68 100 SW10      29.88F FOG
6HR MIN TEMP:  68; 6HR MAX TEMP:  74; 6HR PCP:  0.61;


$$

INZ006>009-017-018-025>027-221300-
NORTHEAST INDIANA

CITY           SKY/WX    TMP DP  RH WIND       PRES   REMARKS
FORT WAYNE     RAIN      70  67  90 W14       29.93R FOG
6HR MIN TEMP:  70; 6HR MAX TEMP:  73; 6HR PCP:  0.32;


$$

INZ028-029-035-036-043>045-051>053-221300-
WEST CENTRAL INDIANA

CITY           SKY/WX    TMP DP  RH WIND       PRES   REMARKS
LAFAYETTE      LGT RAIN  68  68 100 S3        29.94S
6HR MIN TEMP:  67; 6HR MAX TEMP:  73; 6HR PCP:  1.54;

TERRE HAUTE    TSTM      73  70  90 NW5       29.95R FOG
6HR MIN TEMP:  72; 6HR MAX TEMP:  76; 6HR PCP:  0.18;


$$

INZ030>032-037>040-046>048-054>057-064-065-221300-
CENTRAL INDIANA

CITY           SKY/WX    TMP DP  RH WIND       PRES   REMARKS
COLUMBUS       CLEAR     73  68  83 S8        29.96F
GREENWOOD *+   MOCLDY   N/A N/A N/A SW3       29.95S
INDIANAPOLIS   CLOUDY    76  72  87 SW10      29.93S
6HR MIN TEMP:  73; 6HR MAX TEMP:  76;

-EAGLE CREEK   CLOUDY    74  69  85 N18G30    29.94S
6HR MIN TEMP:  74; 6HR MAX TEMP:  75;

KOKOMO +       LGT RAIN  68  67  96 W3        29.94F FOG
6HR MIN TEMP:  68; 6HR MAX TEMP:  73; 6HR PCP:  0.22;

MT COMFORT *+  PTCLDY    70  68  94 S6        29.94F
SHELBYVILLE    MOSUNNY   73  68  84 S8        29.94F
6HR MIN TEMP:  72; 6HR MAX TEMP:  75;


$$

INZ033-034-041-042-049-050-058-059-221300-
EAST CENTRAL INDIANA

CITY           SKY/WX    TMP DP  RH WIND       PRES   REMARKS
MUNCIE         CLOUDY    75  70  84 MISG      29.96R
6HR MIN TEMP:  74; 6HR MAX TEMP:  77; 6HR PCP: TRACE;

RICHMOND +     MOSUNNY   72  70  94 SW10      29.97S

$$

INZ060-061-067>069-081>083-085>088-221300-
SOUTHWEST INDIANA

CITY           SKY/WX    TMP DP  RH WIND       PRES   REMARKS
EVANSVILLE     CLEAR     76  73  91 SW7       29.98F
6HR MIN TEMP:  74; 6HR MAX TEMP:  77;

HUNTINGBURG +  CLEAR     75  73  93 SW8       29.99F
6HR MIN TEMP:  72; 6HR MAX TEMP:  75;


$$

INZ062-063-066-070>080-084-089>092-221300-
SOUTH CENTRAL AND SOUTHEAST INDIANA

CITY           SKY/WX    TMP DP  RH WIND       PRES   REMARKS
BLOOMINGTON    PTCLDY    76  71  85 SW10      29.96S
6HR MIN TEMP:  73; 6HR MAX TEMP:  76;

MADISON *+     SUNNY     72  68  88 S3        30.02S
SEYMOUR +      CLEAR     75  70  83 S6        29.97F

$$




USA.gov is the U.S. government's official web portal to all federal, state and local government web resources and services.